Location: Beekmeers
(50.8953°N, 3.6968°E)
Time: 13:21:40
(UTC+00:00)

SJ 16-02 - Pass Details

Date: 23 May 2024
Orbit: 594 x 606 km, 75.0° (Epoch: 16 June)

Event Time Altitude Azimuth Distance (km) Brightness Sun altitude
Exits shadow 01:40:31 12° 162° (SSE) 1,812 3.4 -13.9°
Maximum altitude 01:43:58 31° 102° (ESE) 1,056 2.7 -13.6°
Drops below altitude 10° 01:47:46 10° 40° (NE) 1,940 5.3 -13.3°
Sets 01:50:11 0° 31° (NNE) 2,847 6.9 -13.1°
